GEFSGL_con_prob3kmehi_360.txt.gz
EHI
32 33 33 33 31 28 27 27 28 31 31 29 30 32 32 30 27 25 22 19 17 18 18 16 14 12 12 14 15 14 11 9 5 2 4 8 13 14 13 14 15 14 12
34 35 34 32 31 29 29 29 28 30 30 29 30 32 31 28 25 22 19 16 15 16 17 16 13 11 11 12 13 12 11 9 5 2 3 8 13 14 13 14 14 12 11
33 33 32 29 29 29 30 30 29 28 28 28 30 31 29 25 23 19 16 14 13 13 14 12 9 8 8 10 11 12 11 9 6 3 4 9 13 15 15 13 12 12 11
30 30 29 29 28 29 29 29 28 26 25 28 30 30 28 25 21 17 14 13 12 10 8 6 5 4 6 8 10 12 12 10 8 7 7 9 13 17 18 14 12 11 11
29 29 31 31 31 30 30 28 26 24 23 25 27 26 24 21 17 14 12 11 10 7 4 3 3 3 4 5 6 8 10 11 11 10 8 8 12 17 19 16 13 12 11
29 30 32 32 32 30 27 25 25 24 22 21 21 20 18 14 10 8 7 7 6 4 3 3 3 3 3 4 4 4 5 7 9 10 8 7 10 14 15 13 11 11 11
28 29 29 28 27 25 21 20 20 19 18 18 17 16 14 10 5 3 2 3 3 2 3 4 4 4 4 5 5 5 4 4 6 7 7 7 8 10 11 9 8 9 10
25 25 25 23 21 19 16 14 13 13 13 15 16 15 14 10 5 1 0 1 2 4 5 5 6 5 3 4 6 7 7 5 5 5 5 5 5 6 6 6 6 7 9
20 20 20 18 17 15 13 10 9 9 10 12 14 15 14 10 5 2 1 2 5 7 7 6 5 4 2 3 5 7 7 6 5 4 4 3 3 2 2 4 6 7 7
15 16 15 13 12 10 9 7 6 7 8 9 10 12 13 11 6 2 2 4 7 8 8 6 4 2 1 1 4 5 5 5 5 4 4 4 4 4 4 4 7 9 8
11 11 10 7 5 5 5 5 5 7 8 7 8 9 11 8 4 1 1 4 5 6 7 7 5 2 0 0 2 3 3 3 4 5 6 7 8 10 9 8 9 11 11
10 8 6 4 2 2 4 6 6 7 7 6 6 7 8 5 2 0 0 1 2 3 4 5 4 1 0 0 0 1 1 2 3 4 5 7 10 11 11 10 9 11 12
10 8 6 3 2 3 4 4 5 5 5 4 4 5 5 4 3 1 0 0 0 1 1 2 1 0 0 0 0 0 1 2 3 4 5 7 9 10 9 8 8 9 10
8 8 6 5 4 3 3 2 2 3 3 3 3 3 4 5 4 3 1 1 0 0 0 0 0 0 0 0 1 1 3 4 4 5 6 7 8 8 7 6 6 7 7
5 6 5 5 5 4 3 2 1 1 2 2 2 2 3 3 3 2 2 1 0 0 0 0 1 2 1 1 2 4 5 5 5 6 7 7 7 7 6 5 5 5 4
4 4 5 6 6 5 5 3 1 0 1 1 1 1 1 1 1 1 1 1 0 0 0 0 1 3 3 3 3 5 6 5 5 6 6 6 6 6 5 4 4 4 4
3 3 4 5 5 6 6 5 3 1 0 0 0 0 0 0 0 0 0 0 0 0 0 0 0 1 2 2 3 3 4 4 5 6 6 6 6 6 5 3 3 4 4
3 3 3 3 4 5 6 6 5 3 1 0 0 0 0 0 0 0 0 0 0 0 0 0 0 0 1 1 1 1 2 3 4 5 5 5 5 4 3 2 2 2 2
3 3 3 3 2 3 5 6 6 5 2 1 0 0 0 0 0 0 0 0 0 0 0 0 0 0 0 0 0 0 0 1 2 3 4 4 4 3 2 1 1 1 0
3 3 2 2 2 2 4 5 5 5 3 2 0 0 0 0 0 0 0 0 0 0 0 0 0 0 0 0 0 1 1 2 3 3 3 3 3 2 2 1 0 0 0
2 1 1 1 1 2 3 3 2 3 4 2 0 0 0 0 0 0 0 0 0 0 0 0 0 0 0 0 1 2 2 2 2 2 2 1 1 1 1 0 0 0 0
1 0 0 0 1 1 1 1 0 1 2 1 0 0 0 0 0 0 0 0 0 0 0 0 0 0 0 0 1 2 2 1 1 1 1 0 0 0 0 0 0 0 0
0 0 0 0 0 0 0 0 0 0 0 0 0 0 0 0 0 0 0 0 0 0 0 0 0 0 0 0 0 1 1 0 0 0 0 0 0 0 0 0 0 0 0
0 0 0 0 0 0 0 0 0 0 0 0 0 0 0 0 0 0 0 0 0 0 0 0 0 0 0 0 0 0 0 0 0 0 0 0 0 0 0 0 0 0 0
0 0 0 0 0 1 1 2 1 0 0 0 0 0 0 0 0 0 0 0 0 0 0 0 0 0 0 0 0 0 0 0 0 0 0 0 0 0 0 0 0 0 0
0 0 0 0 1 2 2 3 2 1 0 0 0 0 0 0 0 0 0 0 0 0 0 0 0 0 0 0 0 0 0 0 0 0 0 0 0 0 0 0 0 0 0

GEFSGL_con_prob3kmehi_366.txt.gz
EHI
14 14 14 14 14 13 13 13 12 12 12 12 12 11 10 9 8 6 6 6 6 6 6 5 3 1 0 0 0 0 1 1 1 0 0 0 0 0 0 0 1 2 2
16 16 16 16 15 14 14 13 13 12 11 11 11 11 10 9 7 5 5 6 6 6 6 4 2 1 0 0 0 1 2 2 2 1 0 0 0 0 0 0 0 1 1
22 20 18 18 17 16 15 15 15 14 12 12 12 12 11 9 7 5 5 6 6 5 4 3 1 0 0 0 0 2 3 3 3 2 1 0 1 1 1 0 0 0 0
25 23 20 19 18 16 15 14 15 16 15 14 13 11 10 10 8 6 6 5 4 2 1 1 0 0 0 0 0 1 2 2 2 2 1 0 1 1 1 0 0 0 0
21 20 18 16 14 14 13 12 13 15 15 14 12 11 10 9 8 6 5 3 2 0 0 0 0 0 0 0 0 0 1 1 2 2 1 0 1 1 1 0 0 0 0
16 16 15 13 11 10 10 9 9 10 10 9 10 10 8 6 5 3 3 1 0 0 0 0 0 0 0 0 0 0 0 0 1 2 1 1 1 2 2 1 1 1 1
15 14 12 11 11 9 8 7 7 6 5 5 5 5 5 3 2 1 1 0 0 0 0 0 0 0 0 0 0 0 0 0 0 1 1 2 2 2 2 2 2 2 2
12 12 11 11 10 9 6 5 4 3 2 1 1 2 2 2 1 1 1 1 0 0 0 0 0 0 0 0 0 0 0 0 0 0 1 1 1 1 1 2 2 1 1
9 9 8 8 8 7 4 2 1 1 1 0 0 1 1 1 1 1 1 1 1 0 0 0 0 0 0 0 0 0 0 0 0 0 0 0 0 0 0 1 1 0 0
6 6 5 5 5 4 2 0 0 0 0 0 0 1 1 1 1 0 1 1 1 1 1 1 1 0 0 0 0 0 0 0 0 0 1 1 1 0 0 0 0 0 1
4 4 3 3 3 2 1 0 0 0 0 0 0 1 2 2 2 1 0 0 0 0 1 1 1 0 0 0 0 0 0 0 0 0 1 2 2 1 1 1 1 1 2
3 3 3 3 2 1 0 0 0 0 0 0 0 1 1 2 2 1 0 0 0 0 0 1 1 0 0 0 0 0 0 0 0 0 1 1 2 3 2 3 3 2 2
2 2 2 1 1 0 0 0 0 0 0 0 0 0 0 1 1 0 0 0 0 0 0 0 0 0 0 0 0 0 0 0 0 0 0 1 2 3 3 3 3 2 2
1 1 1 0 0 0 0 0 0 0 0 0 0 0 0 0 0 0 0 0 0 0 0 0 0 0 0 0 0 0 0 0 0 0 0 0 1 2 2 3 3 2 2
0 0 0 0 0 0 0 0 0 0 0 0 0 0 0 0 0 0 0 0 0 0 0 0 0 0 0 0 0 0 0 0 0 0 0 0 1 2 3 3 3 3 2
0 0 0 0 0 0 0 0 0 0 0 0 0 0 0 0 0 0 0 0 0 0 0 0 0 0 0 0 0 0 0 0 0 0 0 0 0 1 2 2 1 1 1
0 0 0 0 0 0 0 0 0 0 0 0 0 0 0 0 0 0 0 0 0 0 0 0 0 0 0 0 0 0 0 0 0 0 0 0 0 0 1 1 0 0 0
0 0 0 0 0 0 0 0 0 0 0 0 0 0 0 0 0 0 0 0 0 0 0 0 0 0 0 0 0 0 0 0 0 0 0 0 0 0 0 0 0 0 0
0 0 0 0 0 0 0 1 1 0 0 0 0 0 0 0 0 0 0 0 0 0 0 0 0 0 0 0 0 0 0 0 0 0 0 0 0 0 0 0 0 0 0
0 0 0 0 0 0 0 1 2 1 0 0 0 0 0 0 0 0 0 0 0 0 0 0 0 0 0 0 0 0 0 0 0 0 0 0 0 0 0 0 0 0 0
0 0 0 0 0 0 0 1 1 1 0 0 0 0 0 0 0 0 0 0 0 0 0 0 0 0 0 0 0 0 0 0 0 0 0 0 0 0 0 0 0 0 0
0 0 0 0 0 0 0 0 0 0 0 0 0 0 0 0 0 0 0 0 0 0 0 0 0 0 0 0 0 0 0 0 0 0 0 0 0 0 0 0 0 0 0
0 0 0 0 0 0 0 0 0 0 0 0 0 0 0 0 0 0 0 0 0 0 0 0 0 0 0 0 0 0 0 0 0 0 0 0 0 0 0 0 0 0 0
0 0 0 0 0 0 0 0 0 0 0 0 0 0 0 0 0 0 0 0 0 0 0 0 0 0 0 0 0 0 0 0 0 0 0 0 0 0 0 0 0 0 0
0 0 0 0 0 0 0 0 0 0 0 0 0 0 0 0 0 0 0 0 0 0 0 0 0 0 0 0 0 0 0 0 0 0 0 0 0 0 0 0 0 0 0
0 0 0 0 0 0 0 0 0 0 0 0 0 0 0 0 0 0 0 0 0 0 0 0 0 0 0 0 0 0 0 0 0 0 0 0 0 0 0 0 0 0 0

GEFSGL_con_prob3kmehi_372.txt.gz
EHI
4 3 2 2 4 4 3 3 3 3 2 1 0 0 0 0 1 4 7 8 8 6 3 2 3 3 2 1 0 1 2 2 2 1 0 0 0 0 0 0 0 0 0
5 5 4 5 6 6 5 3 2 1 1 0 0 0 0 0 1 4 6 7 7 5 3 2 3 2 1 0 0 0 1 1 1 1 0 0 0 0 0 0 0 0 0
8 8 9 10 9 7 5 3 1 1 1 1 1 1 1 1 2 4 6 6 6 5 4 3 2 1 0 0 0 0 0 0 0 0 0 0 0 0 0 0 0 0 0
10 11 12 12 9 7 5 3 3 3 3 3 3 2 2 2 2 3 5 5 5 5 3 2 1 0 0 0 0 0 0 0 0 0 0 0 0 0 0 0 0 0 0
10 10 9 7 5 4 3 3 3 3 4 3 3 2 1 1 1 1 2 3 4 4 2 1 0 0 0 0 0 0 0 0 0 0 0 0 0 0 0 0 0 0 0
8 6 3 2 1 1 1 1 1 2 2 2 1 1 0 0 0 0 1 2 3 3 1 0 0 0 0 0 0 0 0 0 0 0 0 0 0 0 0 0 0 0 0
6 4 2 1 0 0 0 0 0 0 1 1 1 0 0 0 0 0 0 1 2 2 1 0 0 0 0 0 0 0 0 0 0 0 0 0 0 0 0 0 0 0 0
5 5 4 2 1 0 0 1 0 0 0 0 0 0 0 0 0 0 0 0 1 1 0 0 0 0 0 0 0 0 0 0 0 0 0 0 0 0 0 0 0 0 0
4 4 3 2 1 0 0 0 0 0 0 0 0 0 0 0 0 0 0 0 0 0 0 0 0 0 0 0 0 0 0 0 0 0 0 0 0 0 0 0 0 0 1
2 2 1 0 0 0 0 0 0 0 0 0 0 0 0 0 0 0 0 0 0 0 0 0 0 0 0 0 0 0 0 0 0 0 0 0 0 0 0 0 0 1 2
1 0 0 0 0 0 0 0 0 0 0 0 0 0 0 0 0 0 0 0 0 0 0 0 0 0 0 0 0 0 0 0 0 0 0 0 0 0 1 1 0 1 2
0 0 0 0 0 0 0 0 0 0 0 0 0 0 0 0 0 0 0 0 0 0 0 0 0 0 0 0 0 0 0 0 0 0 0 0 0 1 2 2 1 2 3
0 0 0 0 0 0 0 0 0 0 0 0 0 0 0 0 0 0 0 0 0 0 0 0 0 0 0 0 0 0 0 0 0 0 0 0 0 1 2 2 3 3 3
0 0 0 0 0 0 0 0 0 0 0 0 0 0 0 0 0 0 0 0 0 0 0 0 0 0 0 0 0 0 0 0 0 0 0 0 0 0 1 2 3 4 4
0 0 0 0 0 0 0 0 0 0 0 0 0 0 0 0 0 0 0 0 0 0 0 0 0 0 0 0 0 0 0 0 0 0 0 0 0 0 0 1 2 3 3
0 0 0 0 0 0 0 0 0 0 0 0 0 0 0 0 0 0 0 0 0 0 0 0 0 0 0 0 0 0 0 0 0 0 0 0 0 0 0 1 1 1 2
0 0 0 0 0 0 0 0 0 0 0 0 0 0 0 0 0 0 0 0 0 0 0 0 0 0 0 0 0 0 0 0 0 0 0 0 0 0 0 0 0 0 1
0 0 0 0 0 0 0 0 0 0 0 0 0 0 0 0 0 0 0 0 0 0 0 0 0 0 0 0 0 0 0 0 0 0 0 0 0 0 0 0 0 0 0
0 0 0 0 0 0 0 0 0 0 0 0 0 0 0 0 0 0 0 0 0 0 0 0 0 0 0 0 0 0 0 0 0 0 0 0 0 0 0 0 0 0 0
0 0 0 0 0 0 0 0 0 0 0 0 0 0 0 0 0 0 0 0 0 0 0 0 0 0 0 0 0 0 0 0 0 0 0 0 0 0 0 0 0 0 0
0 0 0 0 0 0 0 0 0 0 0 0 0 0 0 0 0 0 0 0 0 0 0 0 0 0 0 0 0 0 0 0 0 0 0 0 0 0 0 0 0 0 0
0 0 0 0 0 0 0 0 0 0 0 0 0 0 0 0 0 0 0 0 0 0 0 0 0 0 0 0 0 0 0 0 0 0 0 0 0 0 0 0 0 0 0
0 0 0 0 0 0 0 0 0 0 0 0 0 0 0 0 0 0 0 0 0 0 0 0 0 0 0 0 0 0 0 0 0 0 0 0 0 0 0 0 0 0 0
0 0 0 0 0 0 0 0 0 0 0 0 0 0 0 0 0 0 0 0 0 0 0 0 0 0 0 0 0 0 0 0 0 0 0 0 0 0 0 0 0 0 0
0 0 0 0 0 0 0 0 0 0 0 0 0 0 0 0 0 0 0 0 0 0 0 0 0 0 0 0 0 0 0 0 0 0 0 0 0 0 0 0 0 0 0
0 0 0 0 0 0 0 0 0 0 0 0 0 0 0 0 0 0 0 0 0 0 0 0 0 0 0 0 0 0 0 0 0 0 0 0 0 0 0 0 0 0 0

GEFSGL_con_prob3kmehi_378.txt.gz
EHI
8 10 12 14 14 12 10 7 7 9 11 11 10 9 9 9 11 11 11 12 13 13 13 13 13 13 12 11 10 9 8 8 9 8 6 6 6 5 4 2 1 1 1
8 11 13 15 15 12 9 7 5 7 8 8 8 7 7 8 9 10 10 10 11 12 13 13 12 12 11 10 10 9 7 7 7 6 6 7 7 6 4 2 1 2 1
10 12 15 16 15 12 10 6 4 4 5 5 6 6 6 6 6 7 8 9 9 10 12 12 11 11 10 9 9 8 6 6 6 7 7 8 8 7 5 3 3 3 3
14 16 17 17 15 12 9 7 5 3 3 5 7 7 6 6 5 6 6 6 7 9 10 10 9 9 8 8 7 7 6 6 8 9 8 7 8 8 7 5 4 4 4
18 19 19 17 14 10 7 6 5 3 3 6 8 8 7 7 5 4 4 4 6 8 8 7 7 6 5 5 4 4 5 7 8 9 8 7 7 8 7 5 4 3 4
18 19 19 16 11 7 5 4 4 4 5 6 7 8 8 7 4 3 3 3 4 5 5 4 4 4 3 2 2 2 2 4 6 6 6 5 6 7 7 6 4 3 3
19 18 15 12 8 6 4 3 5 6 7 8 7 7 7 6 3 1 1 2 2 3 4 3 4 4 3 2 1 1 1 2 2 2 2 3 4 5 5 5 3 2 2
18 15 10 8 7 7 6 5 7 8 8 8 7 6 5 4 2 0 0 0 1 2 2 2 3 3 2 1 1 2 2 1 0 0 0 1 1 2 2 2 1 1 1
12 10 8 7 7 7 8 9 9 8 7 6 5 4 3 2 0 0 0 0 0 1 1 1 1 1 1 0 0 1 1 1 0 0 0 0 0 0 0 1 0 0 0
7 7 7 7 8 8 10 10 8 7 5 3 2 1 1 0 0 0 0 0 0 0 0 0 0 0 0 0 0 0 0 1 1 0 0 0 1 1 1 1 0 0 1
8 8 9 9 8 8 8 7 6 4 2 1 0 0 0 0 0 0 0 0 0 0 0 0 0 0 0 0 0 0 1 2 2 1 0 1 2 3 2 1 1 1 2
10 10 10 8 6 5 5 5 4 3 2 1 0 0 0 0 0 0 0 0 0 0 0 0 0 0 0 0 0 0 1 2 2 1 0 1 3 4 3 3 2 3 3
11 10 8 5 3 4 5 6 5 4 3 1 0 0 0 0 0 0 0 0 0 0 0 0 0 0 0 0 0 0 1 1 1 0 0 0 1 2 2 3 3 3 2
9 8 5 3 2 3 5 6 5 4 3 2 0 0 0 0 0 0 0 0 0 0 0 0 0 0 0 0 0 0 1 1 0 0 0 0 0 0 1 2 2 1 1
9 7 4 2 2 2 3 4 3 2 2 1 0 0 0 0 0 0 0 0 0 0 0 0 0 0 0 0 0 0 1 1 0 0 0 0 0 0 0 1 1 0 0
9 6 4 2 2 2 1 1 1 1 1 0 0 0 0 0 0 0 0 0 0 0 0 0 0 0 0 0 0 0 0 0 0 0 0 0 0 0 0 0 0 0 0
8 5 3 1 1 1 1 0 0 0 0 0 0 0 0 0 0 0 0 0 0 0 0 0 0 0 0 0 0 0 0 0 0 0 0 0 0 0 0 0 0 0 0
5 4 2 1 0 0 0 0 0 0 0 0 0 0 0 0 0 0 0 0 0 0 0 0 0 0 0 0 0 0 0 0 0 0 0 0 0 0 0 0 0 0 0
4 3 3 2 1 0 0 0 0 0 0 0 0 0 0 0 0 0 0 0 0 0 0 0 0 0 0 0 0 0 0 0 0 0 0 0 0 0 0 0 0 0 0
4 3 3 3 2 1 0 0 0 0 0 0 0 0 0 0 0 0 0 0 0 0 0 0 0 0 0 0 0 0 0 0 0 0 0 0 0 0 0 0 0 0 0
3 2 1 2 3 2 1 0 0 0 0 0 0 0 0 0 0 0 0 0 0 0 0 0 0 0 0 0 0 0 0 0 0 0 0 0 0 0 0 0 0 0 0
1 1 0 1 2 2 1 0 0 0 0 0 0 0 0 0 0 0 0 0 0 0 0 0 0 0 0 0 0 0 0 0 0 0 0 0 0 0 0 0 0 0 0
1 1 1 0 1 1 1 0 0 0 0 0 0 0 0 0 0 0 0 0 0 0 0 0 0 0 0 0 0 0 0 0 0 0 0 0 0 0 0 0 0 0 0
2 2 1 0 0 0 0 0 0 0 0 0 0 0 0 0 0 0 0 0 0 0 0 0 0 0 0 0 0 0 0 0 0 0 0 0 0 0 0 0 0 0 0
2 2 1 0 0 0 0 0 0 0 0 0 0 0 0 0 0 0 0 0 0 0 0 0 0 0 0 0 0 0 0 0 0 0 0 0 0 0 0 0 0 0 0
1 1 0 0 0 0 0 0 0 0 0 0 0 0 0 0 0 0 0 0 0 0 0 0 0 0 0 0 0 0 0 0 0 0 0 0 0 0 0 0 0 0 0

GEFSGL_con_prob3kmehi_384.txt.gz
EHI
22 21 22 24 23 22 22 22 21 18 14 12 13 12 11 12 11 12 11 11 13 16 16 15 15 13 12 10 10 11 12 10 7 6 6 6 9 13 12 11 9 6 5
21 21 22 24 24 22 22 23 23 20 16 14 13 11 9 8 8 10 11 11 13 14 15 14 13 11 10 9 9 10 11 8 6 5 5 5 8 10 11 9 7 5 5
21 21 23 25 25 25 25 25 25 22 19 16 13 11 8 7 8 11 12 10 10 11 12 11 10 9 8 7 7 7 6 5 4 4 4 4 4 4 5 5 3 3 4
25 24 25 26 27 28 28 28 25 20 16 12 10 10 9 9 10 11 11 9 7 7 8 9 8 7 6 5 4 4 3 3 3 3 3 2 2 1 1 1 1 2 3
29 28 27 27 27 28 27 26 21 14 9 8 9 9 8 8 8 7 7 7 6 6 6 7 6 4 3 2 1 1 2 2 2 2 2 2 2 2 1 0 0 1 2
30 28 27 27 26 25 23 20 15 9 6 7 9 9 8 6 3 2 3 5 8 8 7 5 3 1 0 0 0 0 1 1 1 1 1 1 1 2 1 0 0 0 1
29 27 25 25 24 22 18 16 12 8 8 9 9 9 7 5 2 1 2 5 9 10 6 3 1 0 0 0 0 0 0 0 0 0 0 0 0 1 1 0 0 0 0
29 26 23 23 23 20 18 16 13 10 11 11 11 9 8 4 1 0 1 4 8 6 3 1 0 0 0 0 0 0 0 0 0 0 0 0 0 1 1 0 0 0 0
28 26 24 23 23 22 20 19 16 13 13 13 12 11 8 4 1 0 1 3 4 2 0 0 0 0 0 0 0 0 0 0 0 0 0 0 0 0 0 0 0 0 0
27 27 26 24 23 22 21 19 17 14 13 13 12 10 7 3 1 0 0 1 1 1 0 0 0 0 0 0 0 0 0 0 0 0 0 0 0 0 0 0 0 0 0
27 28 28 24 21 20 19 17 14 13 13 12 10 7 5 3 1 0 0 0 0 0 0 0 0 0 0 0 0 0 0 0 0 0 0 0 0 0 0 0 0 0 0
30 30 28 23 19 18 18 15 13 13 12 10 7 6 5 3 1 0 0 0 0 0 0 0 0 0 0 0 0 0 0 0 0 0 0 1 1 0 0 0 0 0 0
32 30 26 22 18 15 15 14 13 11 9 7 5 5 4 3 1 0 0 0 0 0 0 0 0 0 0 0 0 0 0 0 0 0 0 1 2 1 0 0 0 0 0
31 28 24 21 17 13 13 12 11 8 6 4 3 4 4 3 1 0 0 0 0 0 0 0 0 0 0 0 0 0 0 0 0 0 0 1 1 1 0 0 0 0 0
28 24 21 18 16 13 12 10 7 5 3 2 2 2 3 2 1 0 0 0 0 0 0 0 0 0 0 0 0 0 0 0 0 0 0 0 0 0 0 0 0 0 0
24 21 17 15 14 12 11 9 6 3 1 1 0 1 1 1 0 0 0 0 0 0 0 0 0 0 0 0 0 0 0 0 0 0 0 0 0 0 0 0 0 0 0
25 21 16 13 11 10 9 9 7 3 0 0 0 0 0 0 0 0 0 0 0 0 0 0 0 0 0 0 0 0 0 0 0 0 0 0 0 0 0 0 0 0 0
23 19 14 11 9 8 8 7 6 5 2 1 1 0 0 0 0 0 0 0 0 0 0 0 0 0 0 0 0 0 0 0 0 0 0 0 0 0 0 0 0 0 0
18 14 11 9 7 6 5 4 4 5 5 3 1 0 0 0 0 0 0 0 0 0 0 0 0 0 0 0 0 0 0 0 0 0 0 0 0 0 0 0 0 0 0
13 9 7 6 5 4 3 3 3 5 6 5 2 0 0 0 0 0 0 0 0 0 0 0 0 0 0 0 0 0 0 0 0 0 0 0 0 0 0 0 0 0 0
9 6 4 4 4 3 2 3 3 4 5 5 3 1 0 0 0 0 0 0 0 0 0 0 0 0 0 0 0 0 0 0 0 0 0 0 0 0 0 0 0 0 0
4 2 2 3 3 3 3 3 3 3 5 5 4 2 0 0 0 0 0 0 0 0 0 0 0 0 0 1 1 0 0 1 1 0 0 0 0 0 0 0 0 0 0
1 1 1 3 3 3 4 4 4 4 5 5 5 3 1 0 0 0 0 0 0 0 0 0 0 0 1 2 2 1 1 2 1 0 0 0 0 0 0 0 0 0 0
1 2 2 3 3 4 5 5 5 5 4 4 3 2 1 0 0 0 0 0 0 0 0 0 0 0 1 2 2 1 1 2 1 0 0 0 0 0 0 0 0 0 0
1 2 3 3 4 5 5 4 4 4 4 2 1 1 0 0 0 0 0 0 0 0 0 0 0 0 0 1 2 1 1 1 0 0 0 0 0 0 0 0 0 0 0
1 2 3 4 4 4 4 4 3 4 4 2 0 0 0 0 0 0 0 0 0 0 0 0 0 0 1 1 1 0 0 0 0 0 0 0 0 0 0 0 0 0 0